Time,TemperatureF,DewpointF,PressureIn,WindDirection,WindDirectionDegrees,WindSpeedMPH,WindSpeedGustMPH,Humidity,HourlyPrecipIn,Conditions,Clouds,dailyrainin,SoftwareType,DateUTC
2013-11-04 00:04:00,43.5,19.6,30.04,SSE,154,7.4,7.4,38,0.00,,---,0.00,VWS V13.01,2013-11-04 06:04:00,
2013-11-04 00:09:00,43.5,19.6,30.04,SSE,163,5.1,5.1,38,0.00,,---,0.00,VWS V13.01,2013-11-04 06:09:00,
2013-11-04 00:14:00,43.3,19.5,30.04,South,173,5.6,5.6,38,0.00,,---,0.00,VWS V13.01,2013-11-04 06:14:00,
2013-11-04 00:19:00,43.3,19.5,30.04,South,171,4.0,5.6,38,0.00,,---,0.00,VWS V13.01,2013-11-04 06:19:00,
2013-11-04 00:24:00,43.3,19.5,30.04,SSE,167,3.6,6.0,38,0.00,,---,0.00,VWS V13.01,2013-11-04 06:24:00,
2013-11-04 00:29:00,43.3,19.5,30.04,SW,217,4.7,5.1,38,0.00,,---,0.00,VWS V13.01,2013-11-04 06:29:00,
2013-11-04 00:34:00,43.3,19.5,30.04,South,170,6.0,6.0,38,0.00,,---,0.00,VWS V13.01,2013-11-04 06:34:00,
2013-11-04 00:39:00,43.3,20.1,30.04,South,173,4.5,5.1,39,0.00,,---,0.00,VWS V13.01,2013-11-04 06:39:00,
2013-11-04 00:45:00,43.2,19.9,30.04,SSE,152,7.4,7.4,39,0.00,,---,0.00,VWS V13.01,2013-11-04 06:45:00,
2013-11-04 00:50:00,43.2,19.9,30.04,South,172,6.9,6.9,39,0.00,,---,0.00,VWS V13.01,2013-11-04 06:50:00,
2013-11-04 00:55:00,43.2,19.9,30.04,SSE,160,4.7,6.5,39,0.00,,---,0.00,VWS V13.01,2013-11-04 06:55:00,
2013-11-04 01:00:00,43.3,20.1,30.04,SE,141,5.6,6.5,39,0.00,,---,0.00,VWS V13.01,2013-11-04 07:00:00,
2013-11-04 01:05:00,43.3,20.1,30.04,South,172,5.1,7.4,39,0.00,,---,0.00,VWS V13.01,2013-11-04 07:05:00,
2013-11-04 01:10:00,43.3,20.1,30.04,SSE,152,4.7,4.7,39,0.00,,---,0.00,VWS V13.01,2013-11-04 07:10:00,
2013-11-04 01:15:00,43.3,20.1,30.04,South,190,4.7,4.7,39,0.00,,---,0.00,VWS V13.01,2013-11-04 07:15:00,
2013-11-04 01:20:00,43.3,20.1,30.04,SSE,166,5.1,5.1,39,0.00,,---,0.00,VWS V13.01,2013-11-04 07:20:00,
2013-11-04 01:25:00,43.3,20.1,30.04,SSE,163,6.5,7.8,39,0.00,,---,0.00,VWS V13.01,2013-11-04 07:25:00,
2013-11-04 01:30:00,43.3,20.1,30.04,SW,232,4.7,8.3,39,0.00,,---,0.00,VWS V13.01,2013-11-04 07:30:00,
2013-11-04 01:35:00,43.3,20.1,30.04,SSE,163,7.8,8.3,39,0.00,,---,0.00,VWS V13.01,2013-11-04 07:35:00,
2013-11-04 01:40:00,43.5,20.2,30.04,SSE,168,5.1,6.5,39,0.00,,---,0.00,VWS V13.01,2013-11-04 07:40:00,
2013-11-04 01:45:00,43.5,20.2,30.01,South,182,8.9,8.9,39,0.00,,---,0.00,VWS V13.01,2013-11-04 07:45:00,
2013-11-04 01:51:00,43.7,20.4,30.01,South,172,5.1,7.4,39,0.00,,---,0.00,VWS V13.01,2013-11-04 07:51:00,
2013-11-04 01:56:00,43.5,20.2,30.01,SSW,192,4.7,5.1,39,0.00,,---,0.00,VWS V13.01,2013-11-04 07:56:00,
2013-11-04 02:01:00,43.5,20.2,30.01,SSE,158,6.9,6.9,39,0.00,,---,0.00,VWS V13.01,2013-11-04 08:01:00,
2013-11-04 02:06:00,43.5,20.2,30.01,SSE,160,7.4,7.8,39,0.00,,---,0.00,VWS V13.01,2013-11-04 08:06:00,
2013-11-04 02:11:00,43.7,20.4,30.01,South,177,6.0,6.5,39,0.00,,---,0.00,VWS V13.01,2013-11-04 08:11:00,
2013-11-04 02:16:00,43.7,20.4,30.01,SSE,168,7.4,8.7,39,0.00,,---,0.00,VWS V13.01,2013-11-04 08:16:00,
2013-11-04 02:21:00,43.7,20.4,30.01,SSE,161,4.0,6.0,39,0.00,,---,0.00,VWS V13.01,2013-11-04 08:21:00,
2013-11-04 02:26:00,43.9,20.5,30.01,SSE,168,7.4,7.4,39,0.00,,---,0.00,VWS V13.01,2013-11-04 08:26:00,
2013-11-04 02:31:00,43.9,20.5,30.01,SSW,198,6.0,6.0,39,0.00,,---,0.00,VWS V13.01,2013-11-04 08:31:00,
2013-11-04 02:36:00,43.9,20.5,30.01,South,181,5.6,5.6,39,0.00,,---,0.00,VWS V13.01,2013-11-04 08:36:00,
2013-11-04 02:41:00,43.9,20.5,30.01,South,171,5.6,5.6,39,0.00,,---,0.00,VWS V13.01,2013-11-04 08:41:00,
2013-11-04 02:46:00,43.9,20.5,30.01,SSW,192,6.0,6.5,39,0.00,,---,0.00,VWS V13.01,2013-11-04 08:46:00,
2013-11-04 02:52:00,43.9,20.5,30.01,South,186,6.9,6.9,39,0.00,,---,0.00,VWS V13.01,2013-11-04 08:52:00,
2013-11-04 02:57:00,43.9,20.5,30.01,SSE,160,6.5,6.5,39,0.00,,---,0.00,VWS V13.01,2013-11-04 08:57:00,
2013-11-04 03:02:00,43.9,20.5,30.01,South,174,6.9,6.9,39,0.00,,---,0.00,VWS V13.01,2013-11-04 09:02:00,
2013-11-04 03:07:00,43.9,20.5,30.01,SSE,159,5.6,6.5,39,0.00,,---,0.00,VWS V13.01,2013-11-04 09:07:00,
2013-11-04 03:12:00,43.9,20.5,30.01,SSE,151,7.8,7.8,39,0.00,,---,0.00,VWS V13.01,2013-11-04 09:12:00,
2013-11-04 03:17:00,44.1,20.7,30.01,South,173,6.9,8.7,39,0.00,,---,0.00,VWS V13.01,2013-11-04 09:17:00,
2013-11-04 03:22:00,44.1,20.7,30.01,South,169,5.6,5.6,39,0.00,,---,0.00,VWS V13.01,2013-11-04 09:22:00,
2013-11-04 03:27:00,44.1,20.7,30.01,South,187,5.6,6.5,39,0.00,,---,0.00,VWS V13.01,2013-11-04 09:27:00,
2013-11-04 03:32:00,44.1,20.7,30.01,South,191,6.0,7.4,39,0.00,,---,0.00,VWS V13.01,2013-11-04 09:32:00,
2013-11-04 03:37:00,44.1,20.7,30.01,SW,224,8.7,8.7,39,0.00,,---,0.00,VWS V13.01,2013-11-04 09:37:00,
2013-11-04 03:42:00,44.1,20.7,29.98,SSE,157,5.6,5.6,39,0.00,,---,0.00,VWS V13.01,2013-11-04 09:42:00,
2013-11-04 03:47:00,44.1,20.7,29.98,SSE,168,6.5,6.9,39,0.00,,---,0.00,VWS V13.01,2013-11-04 09:47:00,
2013-11-04 03:53:00,44.1,20.7,29.98,SSE,159,9.8,9.8,39,0.00,,---,0.00,VWS V13.01,2013-11-04 09:53:00,
2013-11-04 03:58:00,44.2,20.9,29.98,SW,214,5.6,6.5,39,0.00,,---,0.00,VWS V13.01,2013-11-04 09:58:00,
2013-11-04 04:03:00,44.2,20.9,29.98,SSE,160,4.0,4.0,39,0.00,,---,0.00,VWS V13.01,2013-11-04 10:03:00,
2013-11-04 04:08:00,44.1,20.7,29.98,South,170,5.6,7.4,39,0.00,,---,0.00,VWS V13.01,2013-11-04 10:08:00,
2013-11-04 04:13:00,44.1,20.7,29.98,South,171,5.1,6.0,39,0.00,,---,0.00,VWS V13.01,2013-11-04 10:13:00,
2013-11-04 04:18:00,43.9,21.1,29.98,SSW,210,5.6,5.6,40,0.00,,---,0.00,VWS V13.01,2013-11-04 10:18:00,
2013-11-04 04:23:00,43.5,21.4,29.98,SSW,200,5.1,5.6,41,0.00,,---,0.00,VWS V13.01,2013-11-04 10:23:00,
2013-11-04 04:28:00,43.2,22.2,29.98,SSE,166,4.7,5.6,43,0.00,,---,0.00,VWS V13.01,2013-11-04 10:28:00,
2013-11-04 04:33:00,43.0,22.6,29.98,SSE,164,5.1,6.0,44,0.00,,---,0.00,VWS V13.01,2013-11-04 10:33:00,
2013-11-04 04:38:00,42.6,23.3,29.98,South,170,4.7,6.0,46,0.00,,---,0.00,VWS V13.01,2013-11-04 10:38:00,
2013-11-04 04:43:00,42.4,23.1,29.98,South,169,6.5,6.5,46,0.00,,---,0.00,VWS V13.01,2013-11-04 10:43:00,
2013-11-04 04:48:00,42.4,23.1,29.98,SSE,157,4.7,7.4,46,0.00,,---,0.00,VWS V13.01,2013-11-04 10:48:00,
2013-11-04 04:53:00,42.4,23.6,29.98,South,177,3.6,4.7,47,0.00,,---,0.00,VWS V13.01,2013-11-04 10:53:00,
2013-11-04 04:58:00,42.4,23.6,29.98,South,174,5.6,5.6,47,0.00,,---,0.00,VWS V13.01,2013-11-04 10:58:00,
2013-11-04 05:03:00,42.4,23.6,29.98,SSW,198,4.5,6.0,47,0.00,,---,0.00,VWS V13.01,2013-11-04 11:03:00,
2013-11-04 05:09:00,42.4,23.6,29.98,SW,215,6.9,6.9,47,0.00,,---,0.00,VWS V13.01,2013-11-04 11:09:00,
2013-11-04 05:14:00,42.4,23.1,29.98,SE,139,7.4,7.4,46,0.00,,---,0.00,VWS V13.01,2013-11-04 11:14:00,
2013-11-04 05:15:00,42.4,23.1,29.98,SE,139,5.6,5.6,46,0.00,,---,0.00,VWS V13.01,2013-11-04 11:15:00,
2013-11-04 05:20:00,42.6,23.3,29.98,SSE,167,5.1,5.1,46,0.00,,---,0.00,VWS V13.01,2013-11-04 11:20:00,
2013-11-04 05:22:00,42.6,23.3,29.98,SSE,152,4.0,6.9,46,0.00,,---,0.00,VWS V13.01,2013-11-04 11:22:00,
2013-11-04 05:27:00,42.6,23.3,29.98,SSE,158,5.6,6.9,46,0.00,,---,0.00,VWS V13.01,2013-11-04 11:27:00,
2013-11-04 05:32:00,42.6,23.8,29.98,South,175,6.0,8.3,47,0.00,,---,0.00,VWS V13.01,2013-11-04 11:32:00,
2013-11-04 05:37:00,42.6,23.8,29.98,South,188,6.0,6.0,47,0.00,,---,0.00,VWS V13.01,2013-11-04 11:37:00,
2013-11-04 05:42:00,42.4,24.1,29.98,SSW,213,4.7,6.5,48,0.00,,---,0.00,VWS V13.01,2013-11-04 11:42:00,
2013-11-04 05:47:00,42.4,24.1,29.98,SSE,154,4.0,6.5,48,0.00,,---,0.00,VWS V13.01,2013-11-04 11:47:00,
2013-11-04 05:52:00,42.4,24.6,29.98,South,177,6.5,6.5,49,0.00,,---,0.00,VWS V13.01,2013-11-04 11:52:00,
2013-11-04 05:57:00,42.3,24.5,29.98,South,170,5.1,5.1,49,0.00,,---,0.00,VWS V13.01,2013-11-04 11:57:00,
2013-11-04 06:03:00,42.3,24.5,29.98,SW,233,7.4,7.4,49,0.00,,---,0.00,VWS V13.01,2013-11-04 12:03:00,
2013-11-04 06:08:00,42.1,24.3,29.98,South,170,4.7,5.1,49,0.00,,---,0.00,VWS V13.01,2013-11-04 12:08:00,
2013-11-04 06:13:00,42.1,24.8,29.98,SSW,193,4.0,4.7,50,0.00,,---,0.00,VWS V13.01,2013-11-04 12:13:00,
2013-11-04 06:18:00,42.1,24.8,29.98,South,177,5.6,5.6,50,0.00,,---,0.00,VWS V13.01,2013-11-04 12:18:00,
2013-11-04 06:23:00,41.9,24.6,29.98,SSE,167,4.0,4.0,50,0.00,,---,0.00,VWS V13.01,2013-11-04 12:23:00,
2013-11-04 06:28:00,42.1,24.8,29.98,South,190,5.6,6.5,50,0.00,,---,0.00,VWS V13.01,2013-11-04 12:28:00,
2013-11-04 06:33:00,42.1,24.8,29.96,South,178,4.7,4.7,50,0.00,,---,0.00,VWS V13.01,2013-11-04 12:33:00,
2013-11-04 06:38:00,42.1,24.8,29.96,SSE,155,5.1,5.1,50,0.00,,---,0.00,VWS V13.01,2013-11-04 12:38:00,
2013-11-04 06:43:00,42.1,24.8,29.96,South,179,5.6,5.6,50,0.00,,---,0.00,VWS V13.01,2013-11-04 12:43:00,
2013-11-04 06:48:00,42.1,24.8,29.96,SSE,159,5.6,5.6,50,0.00,,---,0.00,VWS V13.01,2013-11-04 12:48:00,
2013-11-04 06:53:00,42.1,24.8,29.96,SSE,151,4.7,6.5,50,0.00,,---,0.00,VWS V13.01,2013-11-04 12:53:00,
2013-11-04 06:58:00,42.1,24.8,29.96,South,175,4.5,4.5,50,0.00,,---,0.00,VWS V13.01,2013-11-04 12:58:00,
2013-11-04 07:03:00,42.1,24.8,29.96,South,169,4.7,4.7,50,0.00,,---,0.00,VWS V13.01,2013-11-04 13:03:00,
2013-11-04 07:08:00,42.1,24.8,29.96,SSE,163,4.5,6.5,50,0.00,,---,0.00,VWS V13.01,2013-11-04 13:08:00,
2013-11-04 07:13:00,42.1,24.8,29.96,SSE,148,4.7,6.0,50,0.00,,---,0.00,VWS V13.01,2013-11-04 13:13:00,
2013-11-04 07:19:00,42.3,24.5,29.96,South,170,4.5,6.5,49,0.00,,---,0.00,VWS V13.01,2013-11-04 13:19:00,
2013-11-04 07:24:00,42.3,24.5,29.96,East,101,3.1,4.7,49,0.00,,---,0.00,VWS V13.01,2013-11-04 13:24:00,
2013-11-04 07:29:00,42.3,24.5,29.96,SSE,154,4.7,4.7,49,0.00,,---,0.00,VWS V13.01,2013-11-04 13:29:00,
2013-11-04 07:34:00,42.3,24.5,29.96,SSE,155,4.5,4.5,49,0.00,,---,0.00,VWS V13.01,2013-11-04 13:34:00,
2013-11-04 07:39:00,42.3,24.5,29.96,SSW,198,4.0,4.0,49,0.00,,---,0.00,VWS V13.01,2013-11-04 13:39:00,
2013-11-04 07:44:00,42.3,24.5,29.96,SSE,162,6.9,6.9,49,0.00,,---,0.00,VWS V13.01,2013-11-04 13:44:00,
2013-11-04 07:49:00,42.3,25.0,29.96,SSE,168,4.7,5.6,50,0.00,,---,0.00,VWS V13.01,2013-11-04 13:49:00,
2013-11-04 07:54:00,42.4,25.1,29.96,South,173,5.6,7.4,50,0.00,,---,0.00,VWS V13.01,2013-11-04 13:54:00,
2013-11-04 07:59:00,42.4,24.6,29.96,South,176,5.6,5.6,49,0.00,,---,0.00,VWS V13.01,2013-11-04 13:59:00,
2013-11-04 08:04:00,42.4,24.6,29.96,SSW,193,5.1,6.0,49,0.00,,---,0.00,VWS V13.01,2013-11-04 14:04:00,
2013-11-04 08:09:00,42.6,24.8,29.96,SSW,199,4.0,5.6,49,0.00,,---,0.00,VWS V13.01,2013-11-04 14:09:00,
2013-11-04 08:14:00,42.6,24.8,29.96,SW,223,5.1,6.0,49,0.00,,---,0.00,VWS V13.01,2013-11-04 14:14:00,
2013-11-04 08:19:00,42.8,24.5,29.96,SSW,196,4.7,6.0,48,0.00,,---,0.00,VWS V13.01,2013-11-04 14:19:00,
2013-11-04 08:24:00,42.8,24.5,29.96,ESE,113,4.7,6.5,48,0.00,,---,0.00,VWS V13.01,2013-11-04 14:24:00,
2013-11-04 08:29:00,42.8,24.5,29.96,SE,144,4.7,6.5,48,0.00,,---,0.00,VWS V13.01,2013-11-04 14:29:00,
2013-11-04 08:34:00,43.0,24.6,29.96,SSE,151,4.7,6.0,48,0.00,,---,0.00,VWS V13.01,2013-11-04 14:34:00,
2013-11-04 08:39:00,43.0,24.6,29.96,SE,126,5.1,6.5,48,0.00,,---,0.00,VWS V13.01,2013-11-04 14:39:00,
2013-11-04 08:44:00,43.2,24.8,29.96,SSE,163,6.9,6.9,48,0.00,,---,0.00,VWS V13.01,2013-11-04 14:44:00,
2013-11-04 08:49:00,43.3,24.5,29.96,South,179,4.5,5.6,47,0.00,,---,0.00,VWS V13.01,2013-11-04 14:49:00,
2013-11-04 08:54:00,43.3,24.0,29.96,SSE,156,6.0,6.0,46,0.00,,---,0.00,VWS V13.01,2013-11-04 14:54:00,
2013-11-04 08:59:00,43.5,24.1,29.96,SSW,195,4.7,5.6,46,0.00,,---,0.00,VWS V13.01,2013-11-04 14:59:00,
2013-11-04 09:04:00,43.5,23.6,29.96,South,172,6.0,7.4,45,0.00,,---,0.00,VWS V13.01,2013-11-04 15:04:00,
2013-11-04 09:09:00,43.7,23.8,29.96,SSE,163,4.7,6.5,45,0.00,,---,0.00,VWS V13.01,2013-11-04 15:09:00,
2013-11-04 09:14:00,43.9,23.4,29.96,SSE,168,4.0,5.6,44,0.00,,---,0.00,VWS V13.01,2013-11-04 15:14:00,
2013-11-04 09:19:00,43.9,23.4,29.96,South,170,7.4,7.8,44,0.00,,---,0.00,VWS V13.01,2013-11-04 15:19:00,
2013-11-04 09:24:00,44.1,23.6,29.96,South,170,4.7,5.6,44,0.00,,---,0.00,VWS V13.01,2013-11-04 15:24:00,
2013-11-04 09:29:00,44.1,23.6,29.96,SSE,151,7.4,8.3,44,0.00,,---,0.00,VWS V13.01,2013-11-04 15:29:00,
2013-11-04 09:34:00,44.1,23.6,29.96,SE,132,5.6,5.6,44,0.00,,---,0.00,VWS V13.01,2013-11-04 15:34:00,
2013-11-04 09:39:00,43.7,24.3,29.96,South,179,6.5,6.5,46,0.00,,---,0.00,VWS V13.01,2013-11-04 15:39:00,
2013-11-04 09:44:00,43.7,24.8,29.96,SSW,194,4.5,6.9,47,0.00,,---,0.00,VWS V13.01,2013-11-04 15:44:00,
2013-11-04 09:49:00,43.3,25.0,29.96,South,178,4.0,4.5,48,0.00,,---,0.00,VWS V13.01,2013-11-04 15:49:00,
2013-11-04 09:54:00,43.2,25.3,29.96,South,180,5.6,6.5,49,0.00,,---,0.00,VWS V13.01,2013-11-04 15:54:00,
2013-11-04 09:59:00,43.0,25.1,29.96,SE,144,4.7,4.7,49,0.00,,---,0.00,VWS V13.01,2013-11-04 15:59:00,
2013-11-04 10:04:00,43.0,25.6,29.96,South,170,4.5,5.6,50,0.00,,---,0.00,VWS V13.01,2013-11-04 16:04:00,
2013-11-04 10:09:00,42.8,25.5,29.96,South,184,4.5,4.5,50,0.00,,---,0.00,VWS V13.01,2013-11-04 16:09:00,
2013-11-04 10:14:00,43.0,25.6,29.96,SSE,164,5.1,5.1,50,0.00,,---,0.00,VWS V13.01,2013-11-04 16:14:00,
2013-11-04 10:19:00,43.0,25.6,29.96,South,172,4.0,4.5,50,0.00,,---,0.00,VWS V13.01,2013-11-04 16:19:00,
2013-11-04 10:24:00,43.0,25.1,29.96,South,180,5.6,5.6,49,0.00,,---,0.00,VWS V13.01,2013-11-04 16:24:00,
2013-11-04 10:29:00,43.2,25.3,29.96,SSW,193,4.0,5.1,49,0.00,,---,0.00,VWS V13.01,2013-11-04 16:29:00,
2013-11-04 10:34:00,43.2,25.8,29.96,South,184,4.0,4.7,50,0.00,,---,0.00,VWS V13.01,2013-11-04 16:34:00,
2013-11-04 10:39:00,43.0,25.6,29.96,SSE,167,2.7,4.5,50,0.00,,---,0.00,VWS V13.01,2013-11-04 16:39:00,
2013-11-04 10:44:00,42.8,25.9,29.96,SSW,202,4.0,6.0,51,0.00,,---,0.00,VWS V13.01,2013-11-04 16:44:00,
2013-11-04 10:50:00,42.6,26.7,29.96,SSE,161,4.5,5.1,53,0.00,,---,0.00,VWS V13.01,2013-11-04 16:50:00,
2013-11-04 10:55:00,42.4,27.0,29.96,SSE,167,3.6,6.0,54,0.00,,---,0.00,VWS V13.01,2013-11-04 16:55:00,
2013-11-04 11:00:00,42.4,27.0,29.93,SSW,195,3.6,5.1,54,0.00,,---,0.00,VWS V13.01,2013-11-04 17:00:00,
2013-11-04 11:05:00,42.3,27.3,29.93,South,176,4.5,4.7,55,0.00,,---,0.00,VWS V13.01,2013-11-04 17:05:00,
2013-11-04 11:10:00,42.3,27.3,29.93,South,180,3.6,3.6,55,0.00,,---,0.00,VWS V13.01,2013-11-04 17:10:00,
2013-11-04 11:15:00,42.3,27.7,29.93,SSE,166,5.1,6.0,56,0.00,,---,0.00,VWS V13.01,2013-11-04 17:15:00,
2013-11-04 11:20:00,42.4,27.9,29.93,South,182,3.1,4.7,56,0.00,,---,0.00,VWS V13.01,2013-11-04 17:20:00,
2013-11-04 11:25:00,42.4,27.4,29.93,SSE,163,5.1,6.9,55,0.00,,---,0.00,VWS V13.01,2013-11-04 17:25:00,
2013-11-04 11:30:00,42.6,27.1,29.93,SSE,159,5.1,5.1,54,0.00,,---,0.00,VWS V13.01,2013-11-04 17:30:00,
2013-11-04 11:35:00,42.8,26.9,29.93,SSE,160,4.7,4.7,53,0.00,,---,0.00,VWS V13.01,2013-11-04 17:35:00,
2013-11-04 11:40:00,42.8,26.9,29.93,SSW,202,4.7,5.6,53,0.00,,---,0.00,VWS V13.01,2013-11-04 17:40:00,
2013-11-04 11:46:00,42.8,26.9,29.90,SSE,166,4.7,6.9,53,0.00,,---,0.00,VWS V13.01,2013-11-04 17:46:00,
2013-11-04 11:51:00,42.8,27.3,29.90,South,178,5.6,6.9,54,0.00,,---,0.00,VWS V13.01,2013-11-04 17:51:00,
2013-11-04 11:56:00,42.8,27.3,29.90,South,188,4.7,5.6,54,0.00,,---,0.00,VWS V13.01,2013-11-04 17:56:00,
2013-11-04 12:01:00,42.8,27.8,29.90,SSE,157,5.6,6.0,55,0.00,,---,0.00,VWS V13.01,2013-11-04 18:01:00,
2013-11-04 12:06:00,42.8,27.8,29.90,SSE,151,5.1,6.5,55,0.00,,---,0.00,VWS V13.01,2013-11-04 18:06:00,
2013-11-04 12:11:00,42.8,27.8,29.90,SW,229,6.0,7.4,55,0.00,,---,0.00,VWS V13.01,2013-11-04 18:11:00,
2013-11-04 12:16:00,43.0,27.9,29.90,SSW,202,6.5,6.5,55,0.00,,---,0.00,VWS V13.01,2013-11-04 18:16:00,
2013-11-04 12:21:00,43.0,27.9,29.90,South,180,4.5,5.1,55,0.00,,---,0.00,VWS V13.01,2013-11-04 18:21:00,
2013-11-04 12:26:00,43.0,27.9,29.90,SSE,166,6.0,6.0,55,0.00,,---,0.00,VWS V13.01,2013-11-04 18:26:00,
2013-11-04 12:31:00,42.8,28.2,29.90,South,182,4.0,6.9,56,0.00,,---,0.00,VWS V13.01,2013-11-04 18:31:00,
2013-11-04 12:36:00,42.8,28.6,29.90,SSW,195,9.4,9.4,57,0.00,,---,0.00,VWS V13.01,2013-11-04 18:36:00,
2013-11-04 12:41:00,42.8,29.1,29.90,SSE,148,6.0,6.5,58,0.00,,---,0.00,VWS V13.01,2013-11-04 18:41:00,
2013-11-04 12:46:00,42.4,29.1,29.87,SSW,203,4.0,4.0,59,0.00,,---,0.00,VWS V13.01,2013-11-04 18:46:00,
2013-11-04 12:51:00,42.4,29.5,29.87,SW,220,5.1,5.6,60,0.04,,---,0.04,VWS V13.01,2013-11-04 18:51:00,
2013-11-04 12:56:00,42.3,30.2,29.87,SSW,207,5.1,5.1,62,0.04,,---,0.04,VWS V13.01,2013-11-04 18:56:00,
2013-11-04 13:01:00,42.1,30.8,29.90,SSW,211,6.0,6.0,64,0.04,,---,0.04,VWS V13.01,2013-11-04 19:01:00,
2013-11-04 13:07:00,42.1,31.2,29.90,SW,226,4.5,6.5,65,0.04,,---,0.04,VWS V13.01,2013-11-04 19:07:00,
2013-11-04 13:12:00,42.1,31.9,29.90,SW,218,4.7,4.7,67,0.04,,---,0.04,VWS V13.01,2013-11-04 19:12:00,
2013-11-04 13:17:00,42.1,32.3,29.90,SSW,205,5.1,5.1,68,0.04,,---,0.04,VWS V13.01,2013-11-04 19:17:00,
2013-11-04 13:22:00,42.1,32.3,29.90,SSW,197,4.0,7.4,68,0.04,,---,0.04,VWS V13.01,2013-11-04 19:22:00,
2013-11-04 13:27:00,41.9,32.5,29.90,SSE,167,4.7,9.4,69,0.08,,---,0.08,VWS V13.01,2013-11-04 19:27:00,
2013-11-04 13:32:00,41.9,32.8,29.90,SSW,192,6.5,6.5,70,0.08,,---,0.08,VWS V13.01,2013-11-04 19:32:00,
2013-11-04 13:37:00,41.7,33.0,29.90,SSE,164,5.1,8.3,71,0.08,,---,0.08,VWS V13.01,2013-11-04 19:37:00,
2013-11-04 13:42:00,41.7,33.0,29.90,South,187,4.7,6.9,71,0.08,,---,0.08,VWS V13.01,2013-11-04 19:42:00,
2013-11-04 13:47:00,41.7,33.0,29.90,South,189,6.5,6.5,71,0.08,,---,0.08,VWS V13.01,2013-11-04 19:47:00,
2013-11-04 13:52:00,41.7,33.4,29.90,SSW,207,6.0,7.8,72,0.04,,---,0.08,VWS V13.01,2013-11-04 19:52:00,
2013-11-04 13:57:00,41.7,33.4,29.90,SW,223,5.1,6.0,72,0.04,,---,0.08,VWS V13.01,2013-11-04 19:57:00,
2013-11-04 14:02:00,41.7,33.4,29.90,WSW,239,8.3,8.3,72,0.04,,---,0.08,VWS V13.01,2013-11-04 20:02:00,
2013-11-04 14:07:00,41.7,33.4,29.90,SSE,164,2.7,3.6,72,0.04,,---,0.08,VWS V13.01,2013-11-04 20:07:00,
2013-11-04 14:13:00,41.7,33.4,29.90,South,187,4.5,4.5,72,0.04,,---,0.08,VWS V13.01,2013-11-04 20:13:00,
2013-11-04 14:18:00,41.5,33.2,29.90,ESE,120,3.6,4.7,72,0.04,,---,0.08,VWS V13.01,2013-11-04 20:18:00,
2013-11-04 14:23:00,41.5,33.2,29.90,SW,218,4.7,6.0,72,0.04,,---,0.08,VWS V13.01,2013-11-04 20:23:00,
2013-11-04 14:28:00,41.5,33.2,29.87,SSE,162,4.0,5.1,72,0.00,,---,0.08,VWS V13.01,2013-11-04 20:28:00,
2013-11-04 14:33:00,41.5,33.2,29.87,SSW,192,4.0,5.1,72,0.00,,---,0.08,VWS V13.01,2013-11-04 20:33:00,
2013-11-04 14:38:00,41.7,33.4,29.87,SSW,207,4.7,4.7,72,0.00,,---,0.08,VWS V13.01,2013-11-04 20:38:00,
2013-11-04 14:43:00,41.7,33.7,29.87,South,179,4.0,4.5,73,0.00,,---,0.08,VWS V13.01,2013-11-04 20:43:00,
2013-11-04 14:48:00,41.7,33.7,29.87,South,188,4.7,5.6,73,0.00,,---,0.08,VWS V13.01,2013-11-04 20:48:00,
2013-11-04 14:53:00,41.7,33.7,29.87,SSW,200,4.7,6.5,73,0.00,,---,0.08,VWS V13.01,2013-11-04 20:53:00,
2013-11-04 14:58:00,41.7,33.7,29.87,South,185,4.0,4.5,73,0.00,,---,0.08,VWS V13.01,2013-11-04 20:58:00,
2013-11-04 15:03:00,41.9,33.9,29.87,SSW,196,5.1,5.1,73,0.00,,---,0.08,VWS V13.01,2013-11-04 21:03:00,
2013-11-04 15:08:00,41.9,33.9,29.87,SSW,202,2.7,6.0,73,0.00,,---,0.08,VWS V13.01,2013-11-04 21:08:00,
2013-11-04 15:13:00,42.1,34.1,29.87,SW,227,7.8,7.8,73,0.00,,---,0.08,VWS V13.01,2013-11-04 21:13:00,
2013-11-04 15:18:00,42.1,34.1,29.87,SSW,207,6.9,7.8,73,0.00,,---,0.08,VWS V13.01,2013-11-04 21:18:00,
2013-11-04 15:23:00,42.1,34.1,29.87,SSW,196,5.1,5.1,73,0.00,,---,0.08,VWS V13.01,2013-11-04 21:23:00,
2013-11-04 15:29:00,42.3,33.9,29.90,South,185,5.1,5.1,72,0.00,,---,0.08,VWS V13.01,2013-11-04 21:29:00,
2013-11-04 15:34:00,42.3,33.9,29.90,SW,234,6.9,6.9,72,0.00,,---,0.08,VWS V13.01,2013-11-04 21:34:00,
2013-11-04 15:39:00,42.3,33.5,29.90,SSW,208,5.6,7.8,71,0.00,,---,0.08,VWS V13.01,2013-11-04 21:39:00,
2013-11-04 15:44:00,42.3,33.5,29.90,South,176,4.5,5.6,71,0.00,,---,0.08,VWS V13.01,2013-11-04 21:44:00,
2013-11-04 15:49:00,42.3,33.5,29.90,SSW,200,4.5,6.5,71,0.00,,---,0.08,VWS V13.01,2013-11-04 21:49:00,
2013-11-04 15:54:00,42.3,33.5,29.90,SSW,198,5.6,5.6,71,0.00,,---,0.08,VWS V13.01,2013-11-04 21:54:00,
2013-11-04 15:59:00,42.3,33.9,29.90,SSW,195,5.1,5.1,72,0.00,,---,0.08,VWS V13.01,2013-11-04 21:59:00,
2013-11-04 16:04:00,42.3,33.9,29.90,SSW,197,4.7,5.6,72,0.00,,---,0.08,VWS V13.01,2013-11-04 22:04:00,
2013-11-04 16:09:00,42.3,33.9,29.90,South,177,5.1,5.1,72,0.00,,---,0.08,VWS V13.01,2013-11-04 22:09:00,
2013-11-04 16:14:00,42.1,34.1,29.90,SSW,196,5.6,6.0,73,0.00,,---,0.08,VWS V13.01,2013-11-04 22:14:00,
2013-11-04 16:19:00,42.1,34.1,29.90,SSE,160,4.7,4.7,73,0.00,,---,0.08,VWS V13.01,2013-11-04 22:19:00,
2013-11-04 16:24:00,42.1,34.1,29.90,SW,234,4.5,5.1,73,0.00,,---,0.08,VWS V13.01,2013-11-04 22:24:00,
2013-11-04 16:29:00,42.1,34.4,29.90,South,183,6.0,6.9,74,0.00,,---,0.08,VWS V13.01,2013-11-04 22:29:00,
2013-11-04 16:35:00,42.1,34.7,29.90,SSW,193,5.6,5.6,75,0.00,,---,0.08,VWS V13.01,2013-11-04 22:35:00,
2013-11-04 16:40:00,42.3,34.9,29.90,SSW,206,6.0,6.0,75,0.00,,---,0.08,VWS V13.01,2013-11-04 22:40:00,
2013-11-04 16:45:00,42.3,35.2,29.90,South,188,4.0,5.6,76,0.00,,---,0.08,VWS V13.01,2013-11-04 22:45:00,
2013-11-04 16:50:00,42.3,35.2,29.90,South,191,5.1,5.6,76,0.00,,---,0.08,VWS V13.01,2013-11-04 22:50:00,
2013-11-04 16:55:00,42.3,35.6,29.90,WSW,241,6.9,6.9,77,0.00,,---,0.08,VWS V13.01,2013-11-04 22:55:00,
2013-11-04 17:00:00,42.4,36.1,29.90,SSW,196,4.7,5.6,78,0.00,,---,0.08,VWS V13.01,2013-11-04 23:00:00,
2013-11-04 17:05:00,42.4,36.1,29.90,SW,234,4.0,6.9,78,0.00,,---,0.08,VWS V13.01,2013-11-04 23:05:00,
2013-11-04 17:10:00,42.4,36.4,29.90,SW,220,5.1,6.0,79,0.00,,---,0.08,VWS V13.01,2013-11-04 23:10:00,
2013-11-04 17:16:00,42.6,36.9,29.90,South,182,6.9,6.9,80,0.00,,---,0.08,VWS V13.01,2013-11-04 23:16:00,
2013-11-04 17:21:00,42.6,37.2,29.90,SSW,202,4.5,5.1,81,0.00,,---,0.08,VWS V13.01,2013-11-04 23:21:00,
2013-11-04 17:26:00,42.8,37.4,29.90,WSW,248,4.7,6.5,81,0.00,,---,0.08,VWS V13.01,2013-11-04 23:26:00,
2013-11-04 17:31:00,42.8,37.4,29.90,SSW,205,4.7,5.6,81,0.00,,---,0.08,VWS V13.01,2013-11-04 23:31:00,
2013-11-04 17:36:00,43.0,37.9,29.90,SSW,208,5.1,5.6,82,0.00,,---,0.08,VWS V13.01,2013-11-04 23:36:00,
2013-11-04 17:41:00,43.0,37.9,29.90,SW,218,6.0,7.4,82,0.00,,---,0.08,VWS V13.01,2013-11-04 23:41:00,
2013-11-04 17:46:00,43.0,38.2,29.93,SW,221,4.7,5.6,83,0.00,,---,0.08,VWS V13.01,2013-11-04 23:46:00,
2013-11-04 17:51:00,43.2,38.4,29.93,SW,221,7.4,7.4,83,0.00,,---,0.08,VWS V13.01,2013-11-04 23:51:00,
2013-11-04 17:56:00,43.2,38.4,29.93,SSW,208,4.5,4.7,83,0.00,,---,0.08,VWS V13.01,2013-11-04 23:56:00,
2013-11-04 18:01:00,43.3,38.8,29.93,WSW,244,4.0,4.7,84,0.00,,---,0.08,VWS V13.01,2013-11-05 00:01:00,
2013-11-04 18:06:00,43.3,38.8,29.93,WSW,245,4.5,4.5,84,0.00,,---,0.08,VWS V13.01,2013-11-05 00:06:00,
2013-11-04 18:11:00,43.3,38.8,29.93,SSW,208,4.5,5.1,84,0.00,,---,0.08,VWS V13.01,2013-11-05 00:11:00,
2013-11-04 18:16:00,43.3,38.8,29.93,WSW,243,5.1,5.1,84,0.00,,---,0.08,VWS V13.01,2013-11-05 00:16:00,
2013-11-04 18:21:00,43.3,38.8,29.93,WSW,252,3.6,4.0,84,0.00,,---,0.08,VWS V13.01,2013-11-05 00:21:00,
2013-11-04 18:27:00,43.2,38.7,29.93,WSW,250,3.1,4.7,84,0.00,,---,0.08,VWS V13.01,2013-11-05 00:27:00,
2013-11-04 18:32:00,43.0,38.2,29.96,WSW,249,4.5,4.7,83,0.00,,---,0.08,VWS V13.01,2013-11-05 00:32:00,
2013-11-04 18:37:00,42.8,38.0,29.96,SSW,201,6.9,6.9,83,0.00,,---,0.08,VWS V13.01,2013-11-05 00:37:00,
2013-11-04 18:42:00,42.6,38.1,29.96,West,263,4.0,5.6,84,0.00,,---,0.08,VWS V13.01,2013-11-05 00:42:00,
2013-11-04 18:47:00,42.4,37.7,29.96,SW,218,6.0,7.4,83,0.00,,---,0.08,VWS V13.01,2013-11-05 00:47:00,
2013-11-04 18:52:00,42.3,37.5,29.96,SW,229,4.7,4.7,83,0.00,,---,0.08,VWS V13.01,2013-11-05 00:52:00,
2013-11-04 18:57:00,42.3,37.5,29.96,West,271,4.7,6.5,83,0.00,,---,0.08,VWS V13.01,2013-11-05 00:57:00,
2013-11-04 19:02:00,42.3,37.5,29.98,WSW,240,4.0,5.1,83,0.00,,---,0.08,VWS V13.01,2013-11-05 01:02:00,
2013-11-04 19:07:00,42.3,37.2,29.98,WSW,244,5.1,6.0,82,0.04,,---,0.12,VWS V13.01,2013-11-05 01:07:00,
2013-11-04 19:12:00,42.3,37.2,29.98,SW,214,4.7,4.7,82,0.04,,---,0.12,VWS V13.01,2013-11-05 01:12:00,
2013-11-04 19:17:00,42.3,36.9,29.98,SSW,211,6.0,6.5,81,0.04,,---,0.12,VWS V13.01,2013-11-05 01:17:00,
2013-11-04 19:22:00,42.3,36.5,29.98,West,278,6.5,6.9,80,0.04,,---,0.12,VWS V13.01,2013-11-05 01:22:00,
2013-11-04 19:27:00,42.3,35.6,29.98,West,266,4.5,8.7,77,0.04,,---,0.12,VWS V13.01,2013-11-05 01:27:00,
2013-11-04 19:33:00,42.3,34.9,29.98,SW,216,6.5,7.4,75,0.04,,---,0.12,VWS V13.01,2013-11-05 01:33:00,
2013-11-04 19:38:00,42.3,34.2,29.98,West,280,7.4,7.8,73,0.04,,---,0.12,VWS V13.01,2013-11-05 01:38:00,
2013-11-04 19:43:00,42.3,32.8,29.98,SW,234,5.1,7.8,69,0.04,,---,0.12,VWS V13.01,2013-11-05 01:43:00,
2013-11-04 19:48:00,42.3,30.6,29.98,WNW,284,6.5,6.5,63,0.04,,---,0.12,VWS V13.01,2013-11-05 01:48:00,
2013-11-04 19:53:00,42.1,29.2,29.98,SW,233,5.1,7.8,60,0.04,,---,0.12,VWS V13.01,2013-11-05 01:53:00,
2013-11-04 19:58:00,42.1,29.2,29.98,WSW,237,4.5,4.5,60,0.04,,---,0.12,VWS V13.01,2013-11-05 01:58:00,
2013-11-04 20:03:00,41.7,29.3,29.98,NW,306,4.7,5.6,61,0.04,,---,0.12,VWS V13.01,2013-11-05 02:03:00,
2013-11-04 20:08:00,41.7,29.7,29.98,NNW,341,4.5,4.5,62,0.00,,---,0.12,VWS V13.01,2013-11-05 02:08:00,
2013-11-04 20:13:00,41.7,29.7,29.98,WNW,286,5.6,6.5,62,0.00,,---,0.12,VWS V13.01,2013-11-05 02:13:00,
2013-11-04 20:18:00,41.5,29.1,29.98,SW,235,4.7,6.0,61,0.00,,---,0.12,VWS V13.01,2013-11-05 02:18:00,
2013-11-04 20:24:00,41.4,28.5,29.98,West,279,6.0,7.8,60,0.00,,---,0.12,VWS V13.01,2013-11-05 02:24:00,
2013-11-04 20:29:00,41.2,27.5,30.01,WSW,251,5.1,5.1,58,0.00,,---,0.12,VWS V13.01,2013-11-05 02:29:00,
2013-11-04 20:34:00,41.2,26.7,30.01,West,263,7.4,10.7,56,0.00,,---,0.12,VWS V13.01,2013-11-05 02:34:00,
2013-11-04 20:39:00,41.0,26.1,30.01,North,357,5.6,5.6,55,0.00,,---,0.12,VWS V13.01,2013-11-05 02:39:00,
2013-11-04 20:44:00,40.6,25.8,30.01,NNW,332,7.4,8.7,55,0.00,,---,0.12,VWS V13.01,2013-11-05 02:44:00,
2013-11-04 20:49:00,40.5,25.1,30.01,WSW,238,7.8,8.9,54,0.00,,---,0.12,VWS V13.01,2013-11-05 02:49:00,
2013-11-04 20:54:00,40.1,24.4,30.01,WSW,249,7.4,7.4,53,0.00,,---,0.12,VWS V13.01,2013-11-05 02:54:00,
2013-11-04 20:59:00,39.7,24.0,30.01,SW,235,3.6,5.6,53,0.00,,---,0.12,VWS V13.01,2013-11-05 02:59:00,
2013-11-04 21:04:00,39.6,23.9,30.01,SW,221,4.7,5.1,53,0.00,,---,0.12,VWS V13.01,2013-11-05 03:04:00,
2013-11-04 21:09:00,39.2,23.5,30.01,WSW,254,4.7,4.7,53,0.00,,---,0.12,VWS V13.01,2013-11-05 03:09:00,
2013-11-04 21:14:00,38.8,23.2,30.04,SW,220,5.1,5.6,53,0.00,,---,0.12,VWS V13.01,2013-11-05 03:14:00,
2013-11-04 21:20:00,38.5,22.4,30.04,WSW,252,5.6,6.5,52,0.00,,---,0.12,VWS V13.01,2013-11-05 03:20:00,
2013-11-04 21:25:00,38.3,22.2,30.04,WSW,242,4.7,4.7,52,0.00,,---,0.12,VWS V13.01,2013-11-05 03:25:00,
2013-11-04 21:30:00,37.9,21.4,30.04,WSW,248,4.0,8.7,51,0.00,,---,0.12,VWS V13.01,2013-11-05 03:30:00,
2013-11-04 21:35:00,37.8,21.3,30.04,SW,229,6.9,6.9,51,0.00,,---,0.12,VWS V13.01,2013-11-05 03:35:00,
2013-11-04 21:40:00,37.4,20.9,30.04,WSW,237,4.7,4.7,51,0.00,,---,0.12,VWS V13.01,2013-11-05 03:40:00,
2013-11-04 21:45:00,37.2,21.2,30.07,West,261,4.5,5.6,52,0.00,,---,0.12,VWS V13.01,2013-11-05 03:45:00,
2013-11-04 21:50:00,37.0,21.1,30.07,SW,226,4.5,4.5,52,0.00,,---,0.12,VWS V13.01,2013-11-05 03:50:00,
2013-11-04 21:55:00,36.9,20.9,30.07,WSW,237,4.0,4.7,52,0.00,,---,0.12,VWS V13.01,2013-11-05 03:55:00,
2013-11-04 22:00:00,36.9,20.9,30.07,SW,217,5.6,7.4,52,0.00,,---,0.12,VWS V13.01,2013-11-05 04:00:00,
2013-11-04 22:05:00,36.7,20.7,30.07,SW,223,4.7,4.7,52,0.00,,---,0.12,VWS V13.01,2013-11-05 04:05:00,
2013-11-04 22:11:00,36.5,20.6,30.07,SW,234,2.7,4.5,52,0.00,,---,0.12,VWS V13.01,2013-11-05 04:11:00,
2013-11-04 22:16:00,36.3,20.4,30.07,SW,227,5.6,5.6,52,0.00,,---,0.12,VWS V13.01,2013-11-05 04:16:00,
2013-11-04 22:21:00,36.3,20.4,30.07,WSW,241,4.0,6.0,52,0.00,,---,0.12,VWS V13.01,2013-11-05 04:21:00,
2013-11-04 22:26:00,36.3,20.4,30.07,SW,224,4.5,4.7,52,0.00,,---,0.12,VWS V13.01,2013-11-05 04:26:00,
2013-11-04 22:31:00,36.1,20.7,30.07,SW,230,4.0,4.7,53,0.00,,---,0.12,VWS V13.01,2013-11-05 04:31:00,
2013-11-04 22:36:00,36.0,20.5,30.07,SW,215,3.6,4.0,53,0.00,,---,0.12,VWS V13.01,2013-11-05 04:36:00,
2013-11-04 22:41:00,36.0,20.5,30.07,SSW,192,4.5,4.5,53,0.00,,---,0.12,VWS V13.01,2013-11-05 04:41:00,
2013-11-04 22:46:00,35.8,20.8,30.07,SW,233,3.6,4.0,54,0.00,,---,0.12,VWS V13.01,2013-11-05 04:46:00,
2013-11-04 22:51:00,35.8,20.8,30.07,SW,222,4.5,4.5,54,0.00,,---,0.12,VWS V13.01,2013-11-05 04:51:00,
2013-11-04 22:56:00,35.8,21.2,30.07,SW,232,3.6,4.5,55,0.00,,---,0.12,VWS V13.01,2013-11-05 04:56:00,
2013-11-04 23:01:00,35.6,21.0,30.07,SW,232,3.6,3.6,55,0.00,,---,0.12,VWS V13.01,2013-11-05 05:01:00,
2013-11-04 23:02:00,35.6,21.0,30.07,SW,232,3.6,4.5,55,0.00,,---,0.12,VWS V13.01,2013-11-05 05:02:00,
2013-11-04 23:03:00,35.6,21.0,30.07,SW,232,3.1,3.1,55,0.00,,---,0.12,VWS V13.01,2013-11-05 05:03:00,
2013-11-04 23:08:00,35.4,20.9,30.07,SW,232,3.6,4.5,55,0.00,,---,0.12,VWS V13.01,2013-11-05 05:08:00,
2013-11-04 23:13:00,35.2,20.7,30.07,WSW,240,3.6,4.7,55,0.00,,---,0.12,VWS V13.01,2013-11-05 05:13:00,
2013-11-04 23:18:00,35.1,21.0,30.07,WSW,240,4.5,4.5,56,0.00,,---,0.12,VWS V13.01,2013-11-05 05:18:00,
2013-11-04 23:23:00,35.2,21.5,30.07,SW,218,3.6,4.5,57,0.00,,---,0.12,VWS V13.01,2013-11-05 05:23:00,
2013-11-04 23:28:00,35.2,21.5,30.10,WSW,239,3.1,4.7,57,0.00,,---,0.12,VWS V13.01,2013-11-05 05:28:00,
2013-11-04 23:33:00,35.2,21.5,30.10,WSW,239,4.5,4.7,57,0.00,,---,0.12,VWS V13.01,2013-11-05 05:33:00,
2013-11-04 23:38:00,35.2,21.5,30.10,SW,219,4.0,4.5,57,0.00,,---,0.12,VWS V13.01,2013-11-05 05:38:00,
2013-11-04 23:43:00,35.1,21.4,30.10,SSW,201,4.5,4.5,57,0.00,,---,0.12,VWS V13.01,2013-11-05 05:43:00,
2013-11-04 23:49:00,35.1,21.4,30.10,WSW,247,3.6,3.6,57,0.00,,---,0.12,VWS V13.01,2013-11-05 05:49:00,
2013-11-04 23:54:00,35.2,22.0,30.10,SW,218,3.6,4.7,58,0.00,,---,0.12,VWS V13.01,2013-11-05 05:54:00,
2013-11-04 23:59:00,35.4,22.1,30.10,WSW,238,3.6,5.6,58,0.00,,---,0.12,VWS V13.01,2013-11-05 05:59:00,